This is the latest recevied weather packets stored in our database for station/object Oberstadn. If no packets are shown the sender has not sent any weather packets the latest 10 day(s).
| Time | Temp. | Humidity | Pressure | Rain* | Wind** | Luminosity | Snow |
|---|---|---|---|---|---|---|---|
| 1777523532 | 2.22° C | 60% | 1025.6 hPa | 0 mm | - | - | - |
| 1777521732 | 3.33° C | 59% | 1025.5 hPa | 0 mm | - | - | - |
| 1777519931 | 3.89° C | 57% | 1025.5 hPa | 0 mm | - | - | - |
| 1777518132 | 4.44° C | 55% | 1025.4 hPa | 0 mm | - | - | - |
| 1777514532 | 5° C | 52% | 1025 hPa | 0 mm | - | - | - |
| 1777512731 | 5.56° C | 50% | 1024.7 hPa | 0 mm | - | - | - |
| 1777510932 | 6.11° C | 49% | 1024.5 hPa | 0 mm | - | - | - |
| 1777509129 | 6.67° C | 46% | 1024.5 hPa | 0 mm | - | - | - |
| 1777507330 | 7.22° C | 45% | 1024.4 hPa | 0 mm | - | - | - |
| 1777505529 | 7.78° C | 45% | 1024.1 hPa | 0 mm | - | - | - |
| 1777503729 | 8.33° C | 44% | 1024.1 hPa | 0 mm | - | - | - |
| 1777501931 | 8.89° C | 44% | 1023.9 hPa | 0 mm | - | - | - |
| 1777498329 | 10° C | 42% | 1023.3 hPa | 0 mm | - | - | - |
| 1777496530 | 10.56° C | 40% | 1023.1 hPa | 0 mm | - | - | - |
| 1777494730 | 11.11° C | 38% | 1022.8 hPa | 0 mm | - | - | - |
| 1777492929 | 11.67° C | 37% | 1022.5 hPa | 0 mm | - | - | - |
| 1777491129 | 12.22° C | 35% | 1022.1 hPa | 0 mm | - | - | - |
| 1777489330 | 12.78° C | 34% | 1021.7 hPa | 0 mm | - | - | - |
| 1777487531 | 13.89° C | 34% | 1021.2 hPa | 0 mm | - | - | - |
| 1777485731 | 14.44° C | 34% | 1021 hPa | 0 mm | - | - | - |
| 1777483931 | 15.56° C | 33% | 1020.5 hPa | 0 mm | - | - | - |
| 1777482131 | 16.11° C | 34% | 1020.3 hPa | 0 mm | - | - | - |
| 1777480336 | 16.67° C | 35% | 1020.3 hPa | 0 mm | - | - | - |
| 1777478530 | 17.22° C | 34% | 1020 hPa | 0 mm | - | - | - |
| 1777476730 | 17.78° C | 36% | 1019.8 hPa | 0 mm | - | - | - |
* Rain since midnight (hover to see other rain measurements)
** Current wind speed in m/s (hover to see current wind gust speed)